Theta_e
305 305 305 305 305 306 306 306 306 307 307 308 309 310 310 309 310 310 310 313 306 301 303 308 308 303 303 299 298 305 308 310 308 302 299 299 299 300 299 299 298 297 294 294 296 293 292 310 307 299 300 299 303 302
305 305 305 305 306 306 306 306 307 307 307 307 308 310 310 309 310 310 306 311 314 307 302 308 310 312 310 308 300 303 307 311 314 308 303 301 299 299 298 296 305 297 299 299 300 297 304 304 305 302 301 302 301 301
304 304 305 305 306 306 306 306 306 306 307 307 307 309 310 309 310 309 307 310 308 303 304 302 303 307 311 312 309 303 310 312 311 316 313 304 300 301 299 299 304 305 305 300 299 301 299 301 303 304 304 303 302 302
304 305 305 305 305 306 306 306 306 306 306 306 307 308 310 309 309 309 304 309 307 306 300 300 310 309 313 308 311 310 313 313 313 314 311 302 301 305 302 304 304 306 305 300 298 299 300 302 303 303 303 304 303 303
305 305 305 305 305 306 306 306 306 306 306 306 307 308 309 309 309 307 306 305 309 307 299 300 308 310 313 313 312 312 314 312 312 310 301 304 306 306 305 304 302 306 302 299 298 302 299 300 303 305 303 303 303 303
304 304 305 305 305 305 306 306 306 306 306 306 306 308 309 309 308 304 303 308 309 312 302 297 307 309 312 314 314 313 313 312 311 309 304 309 311 306 303 300 307 310 308 305 304 305 301 304 306 306 304 304 304 303
304 304 304 304 305 305 305 306 306 306 306 306 307 309 309 308 305 301 302 305 307 310 302 299 301 310 312 310 310 311 314 313 313 309 303 305 305 307 305 301 309 310 312 308 307 305 302 304 303 306 306 305 306 304
304 304 304 304 305 305 305 306 306 306 306 307 308 308 308 307 306 302 307 308 307 305 305 298 301 305 310 305 306 311 309 310 309 306 303 303 303 305 301 308 308 307 307 306 305 304 304 305 306 305 306 305 304 304
304 304 304 304 305 305 305 306 306 306 306 307 307 307 304 302 300 303 313 314 308 305 297 299 298 298 309 307 307 306 306 302 304 300 301 303 298 297 303 307 307 306 305 304 304 305 306 305 305 305 305 305 304 304
304 304 304 304 305 305 305 306 306 306 306 307 303 297 291 297 307 311 308 304 303 303 301 298 304 301 306 304 302 303 303 300 296 299 302 299 298 304 308 310 310 309 306 306 303 302 303 304 304 304 305 305 306 306
304 304 304 304 305 305 305 306 306 306 306 300 294 293 296 305 305 302 299 298 299 295 298 301 304 301 307 303 301 304 300 298 295 298 298 295 298 306 309 309 310 307 307 307 307 307 307 307 305 305 305 306 307 307
304 304 304 304 305 305 305 305 305 298 300 299 298 298 301 300 298 291 293 296 294 293 297 298 301 305 305 306 303 302 299 298 294 300 297 293 298 306 308 309 308 307 306 306 307 307 306 307 307 306 306 306 305 307
304 304 304 304 305 305 305 305 305 304 302 297 293 292 292 293 288 286 288 291 291 296 298 300 301 305 306 307 302 298 296 295 299 295 295 297 301 307 308 310 308 308 308 307 307 308 308 308 309 308 305 306 306 307
304 304 304 305 305 305 305 305 305 302 298 289 286 284 286 287 288 291 293 292 297 299 303 302 302 300 304 303 302 297 298 297 292 291 294 299 305 306 309 310 309 307 307 306 307 308 308 308 308 308 308 307 306 305
304 304 304 304 305 305 305 305 304 299 294 286 289 282 285 290 291 294 296 296 298 304 307 307 306 306 303 302 301 298 293 292 293 294 296 302 306 309 309 309 308 307 307 306 308 308 308 308 307 305 305 305 305 305
304 304 301 304 305 305 305 303 298 297 289 290 289 286 288 288 289 292 294 295 300 307 309 307 304 302 302 302 297 295 293 292 295 298 304 305 305 307 308 308 308 308 307 308 308 308 307 306 306 304 304 304 304 304
303 297 303 304 304 304 303 298 296 292 288 288 286 290 287 288 288 290 293 296 303 306 300 301 299 299 304 300 297 297 295 298 298 305 307 309 307 306 306 306 307 307 308 308 307 306 305 304 305 304 302 302 303 303
295 301 304 303 302 301 298 297 293 290 287 288 286 287 290 292 291 292 295 298 303 303 305 303 305 300 299 297 297 300 305 304 305 305 307 307 306 307 308 306 308 308 307 307 307 305 304 304 303 301 301 301 302 302
300 301 303 303 300 296 292 292 293 287 287 289 288 290 291 291 293 295 295 296 298 306 308 307 304 299 300 305 302 307 308 307 305 305 304 305 307 306 306 308 308 307 306 306 305 305 304 303 302 301 300 301 301 302
303 303 302 302 302 295 290 290 295 289 286 289 290 292 291 290 293 296 296 297 303 305 303 303 304 305 306 308 309 311 309 310 309 306 304 303 306 307 307 307 306 306 305 304 303 300 302 301 301 301 301 301 301 302
301 301 302 299 296 297 293 290 289 289 290 289 291 292 292 296 295 293 294 302 304 303 301 304 306 308 311 312 313 313 312 312 310 309 306 304 305 306 306 307 307 306 305 304 303 300 301 302 301 302 301 302 303 303
297 302 298 299 295 294 292 293 291 293 291 291 291 294 294 295 295 297 303 302 302 303 304 306 311 312 312 311 312 314 311 310 309 305 302 303 305 305 306 307 307 305 304 304 304 303 303 303 304 304 303 303 302 303
301 300 295 296 290 288 288 293 289 291 287 291 294 296 295 295 299 304 299 303 304 307 307 307 311 315 313 312 312 311 311 310 308 308 307 307 307 307 308 307 308 306 304 303 306 304 304 298 299 304 304 303 303 303
301 295 291 289 288 286 291 289 292 291 291 290 292 295 295 297 301 299 298 300 306 310 308 310 315 313 312 311 309 310 310 310 308 308 308 307 305 304 307 307 307 307 307 306 305 304 304 304 300 303 304 303 303 302
288 289 289 286 289 286 287 287 289 288 287 289 293 296 299 300 297 297 298 301 308 310 312 313 315 315 311 310 309 308 310 311 309 307 306 309 307 304 304 304 305 305 307 305 304 304 303 303 303 304 304 303 303 302
284 289 286 287 288 286 287 287 288 288 288 291 297 300 301 298 297 296 298 304 308 312 310 310 311 309 308 311 309 309 308 311 311 308 305 309 309 307 305 303 302 302 306 307 306 305 304 304 304 304 304 302 294 303
284 286 291 294 292 291 290 291 292 289 293 295 298 299 297 294 295 298 304 306 306 311 314 313 313 312 311 309 310 310 312 313 312 309 309 308 308 309 308 305 304 305 307 307 307 307 305 304 304 304 304 304 304 303
289 289 287 291 290 291 288 288 296 296 297 301 301 295 295 296 291 302 303 309 313 314 314 313 311 314 313 312 312 312 309 310 310 310 309 307 305 306 306 306 305 294 307 307 307 306 305 304 304 304 303 303 303 303
287 289 289 288 290 292 291 296 297 297 300 300 295 292 292 297 300 302 304 308 313 314 311 310 308 312 311 311 312 311 311 311 308 304 303 300 301 302 303 304 304 304 304 301 290 298 304 303 303 303 304 303 303 306
287 290 288 290 293 295 298 300 296 298 298 298 298 300 301 303 306 305 307 309 312 311 309 311 310 312 309 309 306 305 306 310 311 308 304 301 302 303 303 304 304 302 303 302 300 297 290 300 298 304 303 302 302 302
294 294 292 297 296 299 301 304 305 306 305 304 305 302 299 301 304 307 309 310 312 313 311 308 307 309 308 307 307 306 303 306 307 308 308 307 307 305 304 304 304 303 303 302 301 300 300 300 300 301 301 301 301 299
298 298 296 295 296 300 303 301 301 301 302 303 301 303 302 301 300 305 309 310 311 311 301 307 309 306 307 307 307 305 298 308 308 309 308 308 307 306 306 306 305 305 303 302 301 301 302 303 301 299 299 299 299 300
299 297 297 297 296 296 297 299 300 300 301 300 300 301 300 300 299 304 310 312 311 310 309 308 307 306 306 305 304 302 299 304 299 292 292 294 295 299 305 306 306 305 304 303 302 302 302 301 301 300 300 299 299 299
Wind_Speed
18 17 17 17 16 14 13 12 11 10 9 7 8 7 6 5 6 3 1 4 3 2 6 5 4 3 5 1 2 6 3 5 4 3 2 3 3 3 4 4 4 4 5 2 3 4 3 1 3 6 6 4 11 8
19 18 18 17 17 15 14 13 12 11 9 8 8 8 7 6 7 5 2 1 3 2 7 3 13 18 15 18 2 3 1 2 1 2 3 1 3 2 3 2 4 2 5 6 5 5 3 2 3 2 4 8 5 8
21 21 19 18 18 17 15 13 13 13 11 9 8 7 7 5 3 2 2 2 1 1 7 1 6 6 6 12 8 3 2 3 3 5 2 3 3 4 4 2 5 3 3 5 2 5 4 4 4 5 5 8 8 7
21 21 20 20 19 18 16 14 14 14 12 10 8 8 8 5 3 2 2 2 0 1 3 8 3 8 3 6 10 10 4 0 3 2 1 5 3 2 3 5 4 3 5 5 2 3 4 5 3 7 9 12 11 9
21 21 20 20 20 19 17 15 14 14 12 10 9 8 8 5 4 3 3 4 3 1 3 6 13 6 7 6 8 7 5 3 3 0 1 3 1 4 2 3 2 4 8 5 7 11 6 6 6 11 14 11 12 10
20 20 19 19 20 19 18 16 15 14 13 11 10 9 8 5 2 2 3 2 4 3 2 4 5 6 5 1 7 7 4 3 2 2 4 2 2 4 4 2 3 3 4 5 4 11 2 13 12 8 11 12 10 10
20 20 20 20 20 19 19 17 16 15 13 10 9 8 8 6 2 4 1 1 5 0 1 5 6 5 3 3 2 1 2 4 3 2 2 2 2 5 3 3 3 3 6 5 14 14 7 8 7 10 12 10 11 8
21 20 20 20 20 19 20 18 17 15 11 9 7 7 6 5 5 6 3 8 4 2 2 3 6 5 4 2 1 2 2 1 1 3 2 2 2 2 2 2 4 4 10 9 8 5 8 12 13 10 11 11 11 10
22 21 21 20 20 20 20 19 17 14 11 8 9 8 2 2 3 2 8 5 3 2 3 3 3 4 4 1 2 2 2 1 2 0 2 3 1 2 6 7 9 11 9 12 7 10 14 17 14 13 13 11 12 10
22 22 21 21 21 21 21 19 17 15 12 11 4 3 2 4 5 2 2 4 5 4 3 4 2 4 1 1 0 2 0 2 2 4 1 4 3 4 5 8 10 8 15 17 17 8 10 13 14 14 13 9 12 12
23 22 22 22 22 22 21 19 18 15 12 3 4 4 3 4 1 1 5 6 4 4 4 5 6 2 2 3 4 4 4 3 3 5 6 1 3 4 6 8 7 9 11 9 10 10 12 16 15 12 10 11 11 11
23 22 23 24 24 23 22 21 20 7 4 5 5 1 1 3 4 5 5 3 5 8 5 7 6 5 4 1 2 2 4 2 6 3 5 3 6 4 8 10 10 10 9 10 12 13 10 11 11 11 10 10 10 10
23 24 25 25 24 24 23 21 19 9 7 3 3 1 1 2 5 7 8 4 4 4 5 4 4 5 2 2 2 2 3 5 2 3 4 6 3 5 8 10 10 9 10 11 10 9 9 8 8 8 8 6 8 8
24 25 25 24 24 24 23 22 20 10 3 3 4 4 5 6 6 5 3 3 5 4 8 6 4 5 2 1 3 4 2 4 3 5 6 4 7 8 10 12 14 13 12 13 12 10 10 8 7 7 10 10 9 8
24 25 25 24 25 25 23 21 15 2 3 3 3 6 8 4 4 3 5 4 4 4 8 5 4 4 2 3 3 3 3 4 5 7 5 5 9 13 13 13 14 13 12 11 11 11 9 9 9 6 7 8 8 7
26 24 13 25 25 25 24 15 3 2 2 3 5 4 4 2 4 3 4 7 4 4 3 4 5 4 2 1 3 7 8 7 5 5 4 7 8 10 13 13 12 12 12 11 10 11 10 10 10 8 7 6 7 8
21 2 26 27 26 26 19 4 2 2 4 5 4 6 4 4 6 4 2 5 2 4 4 4 5 2 1 3 5 5 6 5 5 3 5 10 15 14 12 13 13 13 13 12 12 10 9 8 10 9 9 4 6 6
5 18 28 28 22 17 2 1 2 4 6 5 4 3 4 4 3 4 4 3 3 3 4 4 6 4 3 4 4 4 3 1 3 2 5 9 12 13 14 16 13 13 12 11 11 10 11 10 9 5 7 7 6 5
15 18 31 28 15 5 4 3 3 3 6 3 3 4 4 4 5 6 4 6 4 4 6 3 4 4 4 5 5 4 3 3 4 3 4 7 12 14 13 13 13 13 13 12 12 8 6 7 6 5 5 5 5 4
27 29 27 23 9 4 3 2 2 2 3 3 3 4 4 5 3 3 2 4 3 4 4 5 5 3 6 9 5 4 2 6 11 10 6 4 7 14 14 13 9 11 9 9 7 8 6 5 4 5 4 5 5 4
22 15 18 6 2 2 3 3 3 3 4 4 3 3 5 3 4 4 4 3 4 4 3 4 6 5 8 9 4 6 7 7 9 8 12 9 5 9 9 8 11 8 9 7 7 6 7 6 5 4 4 4 4 4
4 16 4 0 2 1 1 3 2 1 2 4 3 4 4 3 4 5 3 3 3 4 4 4 3 1 3 2 3 6 9 11 11 11 13 12 10 9 9 9 9 7 7 7 7 6 4 5 5 5 4 4 4 4
10 3 2 3 2 1 2 4 3 4 4 4 4 4 4 4 5 5 3 2 2 4 3 3 3 2 5 4 9 8 9 13 11 10 9 9 8 9 8 7 8 10 7 4 5 6 6 6 6 6 4 3 3 3
7 3 4 6 5 3 3 4 3 4 3 3 6 6 5 5 4 3 4 4 3 2 0 3 6 7 5 3 4 7 7 10 10 7 8 11 9 5 6 6 5 5 6 7 6 5 6 6 6 5 5 4 4 4
4 6 4 6 3 4 5 5 6 4 5 6 6 6 4 4 4 3 4 4 3 1 4 1 7 5 6 4 5 6 6 10 11 11 3 8 9 6 5 4 4 5 7 8 6 7 6 5 5 5 5 5 6 6
4 6 6 7 4 5 6 4 6 6 3 5 8 3 1 3 3 4 2 5 5 6 2 3 6 5 4 5 10 8 5 6 10 9 3 7 10 10 8 7 5 2 4 7 9 9 8 7 7 7 6 6 6 5
4 5 5 4 2 2 3 4 1 6 8 9 3 3 1 3 4 2 1 3 3 3 5 4 4 8 9 7 5 5 5 6 6 6 6 5 5 6 9 9 8 5 7 8 8 10 11 9 7 7 6 4 6 7
4 2 5 3 4 4 5 6 11 9 5 5 3 9 5 5 5 3 3 2 8 3 5 3 4 5 8 7 8 8 6 8 10 11 9 8 6 4 5 4 5 10 7 7 8 7 8 9 8 7 6 7 6 6
4 2 3 5 7 6 7 5 5 2 2 3 3 3 2 2 1 1 2 1 6 9 8 8 4 8 8 7 6 6 8 9 12 13 10 5 4 2 2 6 6 5 5 6 5 5 8 7 7 7 7 5 4 3
5 7 4 5 6 2 2 3 2 1 3 3 4 3 3 3 2 1 0 2 8 7 4 7 7 10 10 11 8 6 4 3 8 11 10 7 6 5 4 7 7 5 5 7 7 6 6 6 5 4 5 4 4 4
4 8 8 4 3 0 0 5 5 6 3 5 5 5 4 4 2 3 4 3 5 9 8 7 6 7 11 9 9 9 4 4 6 10 9 8 9 7 6 6 6 5 6 7 6 6 6 4 4 5 5 5 5 4
7 4 4 4 3 2 1 5 5 5 4 4 4 3 3 5 5 5 5 4 5 8 4 6 10 4 4 5 5 5 9 8 7 10 15 10 8 7 8 7 6 6 7 7 6 5 6 6 5 4 3 5 5 4
3 3 3 5 4 4 2 5 4 4 5 5 6 5 4 3 4 1 1 3 3 4 6 5 6 5 7 8 8 7 7 6 8 9 10 10 11 9 7 6 6 6 8 7 6 7 7 8 6 7 7 7 7 6
Wind_Direction
234 229 229 231 233 224 220 225 234 240 246 263 271 242 235 259 260 321 274 178 154 238 275 252 291 41 346 352 330 304 336 344 31 46 128 208 119 199 88 148 172 143 122 158 93 91 233 19 82 169 197 37 124 134
230 228 223 223 227 222 216 216 223 232 240 251 265 254 221 265 264 317 282 252 182 220 255 251 268 258 234 229 183 291 260 291 252 23 336 41 102 91 142 146 42 58 168 173 170 211 270 296 269 52 124 126 123 125
229 226 223 218 220 219 214 209 216 224 233 242 251 257 218 255 225 1 306 303 88 300 292 337 262 263 212 213 178 144 306 283 327 115 306 285 112 132 128 221 106 77 155 94 86 333 5 6 62 75 97 112 119 125
223 223 221 214 212 213 211 204 209 219 227 235 241 244 223 228 248 237 268 308 320 268 270 283 307 288 230 182 183 205 158 46 122 236 217 248 156 162 173 150 124 186 99 122 69 6 56 353 67 115 96 106 110 126
217 219 217 210 206 208 205 201 203 215 221 229 236 237 223 219 251 238 251 252 225 344 302 289 307 259 264 168 181 169 179 178 221 262 211 243 178 101 29 87 116 179 162 156 213 185 156 177 160 135 125 130 140 135
210 209 208 206 203 202 200 198 197 208 216 222 230 233 212 212 180 226 272 198 212 184 323 307 288 284 313 187 158 160 161 189 195 199 245 266 269 101 96 139 229 183 180 159 191 148 132 136 142 143 130 144 142 140
203 202 202 202 200 197 196 195 194 203 210 213 225 226 198 193 190 231 278 18 11 95 238 300 293 275 267 153 129 156 150 210 180 257 252 177 12 71 101 156 201 136 146 131 128 108 69 159 157 149 134 143 128 135
199 198 196 197 195 193 191 192 193 196 199 201 209 190 180 199 266 281 251 228 144 222 191 253 268 315 182 137 231 154 158 28 250 246 311 119 12 46 105 211 117 102 104 121 140 84 140 122 123 134 130 131 135 144
197 195 193 191 191 189 186 188 187 182 182 187 173 154 88 213 235 250 297 294 202 240 207 197 223 246 336 137 115 37 99 185 248 206 235 84 339 190 215 162 161 164 162 147 97 111 131 131 139 145 137 143 146 155
193 191 191 189 187 184 181 184 177 169 170 171 132 151 231 223 306 260 225 194 181 210 215 229 242 251 95 13 117 98 4 201 173 248 56 72 227 261 228 172 160 157 132 127 117 117 134 137 153 157 158 150 151 160
189 190 189 185 182 177 178 175 166 159 166 183 175 204 238 278 174 206 237 175 171 184 199 215 189 212 297 157 197 191 200 167 151 248 125 196 261 246 158 131 125 143 150 141 137 143 154 151 155 156 151 146 154 156
187 187 183 179 175 172 173 168 163 141 177 180 151 88 286 217 176 211 250 139 170 207 196 169 201 182 265 153 133 225 182 114 199 149 103 178 251 210 150 144 139 145 131 120 132 132 137 143 150 152 153 152 159 170
179 176 174 171 168 168 166 161 161 151 128 64 62 116 253 187 201 204 202 206 172 190 171 146 150 153 329 37 267 170 170 200 90 86 197 217 230 161 149 136 139 138 128 124 124 128 134 133 137 142 141 146 141 146
169 169 166 164 163 161 159 161 169 143 108 96 146 220 214 200 227 207 233 208 233 154 150 128 113 146 185 106 224 173 216 106 118 150 218 225 202 164 153 146 139 148 147 145 141 140 138 142 146 139 146 142 139 142
162 161 158 158 157 156 158 161 146 114 129 143 179 226 221 243 275 262 270 297 284 179 150 103 88 118 145 272 227 115 130 224 184 203 221 206 166 153 146 150 146 143 145 144 137 136 132 133 133 119 124 132 132 128
152 146 154 156 153 154 150 128 107 136 61 168 223 249 235 280 273 233 238 249 236 209 93 76 121 125 186 232 249 214 145 196 218 211 202 143 146 147 143 141 142 139 139 135 132 129 127 131 134 131 109 117 131 139
146 92 153 154 149 147 139 106 132 174 193 222 238 230 272 276 250 251 212 269 199 166 158 123 82 136 317 245 247 182 193 200 196 189 168 164 151 142 132 128 132 132 130 128 123 124 113 110 118 121 123 124 127 129
81 139 148 142 138 136 63 106 162 171 231 241 242 250 218 233 282 287 271 314 320 187 144 138 133 140 197 252 260 224 217 12 54 102 141 135 133 137 138 134 131 130 124 120 124 123 125 130 131 133 129 137 130 129
139 142 142 141 141 119 126 167 195 232 240 256 243 235 240 254 231 237 257 269 224 255 133 86 133 173 206 236 229 233 174 173 143 116 92 117 129 127 124 122 123 125 127 132 135 136 139 140 138 139 136 129 135 146
131 139 144 155 169 101 132 114 80 271 265 233 217 239 230 228 213 218 256 294 234 192 159 155 162 220 229 242 200 192 135 141 126 117 105 83 123 126 131 132 126 121 111 106 101 109 115 100 105 131 140 143 138 155
120 150 151 153 95 96 151 147 193 237 258 249 227 199 251 220 207 204 245 197 216 186 164 190 143 235 272 267 166 127 143 161 157 149 152 139 134 124 113 112 122 124 129 133 138 138 133 148 150 149 150 161 169 154
95 147 100 87 89 70 283 190 226 177 237 265 257 206 246 231 198 192 177 168 180 214 205 141 130 66 215 198 149 135 124 108 96 93 95 118 129 128 128 133 131 129 136 144 142 151 148 143 146 152 155 162 147 151
130 118 90 80 5 331 251 155 200 200 238 282 282 222 217 218 206 110 113 142 199 230 198 131 166 165 102 93 103 94 107 119 116 124 123 124 124 128 129 131 136 138 134 131 138 140 149 151 144 151 149 139 144 135
82 109 167 178 195 234 201 211 201 200 205 159 265 237 210 192 169 106 127 168 208 273 227 89 129 77 57 47 120 120 120 115 110 108 130 127 125 120 133 133 133 132 137 138 135 132 136 150 147 144 152 150 153 147
126 191 217 198 183 213 221 202 184 194 218 189 256 244 198 143 127 130 143 147 99 251 296 24 72 141 149 156 116 106 124 135 136 133 133 132 122 104 88 94 107 125 136 137 140 144 144 142 151 156 162 166 178 185
219 191 200 207 194 217 209 202 199 199 160 237 238 269 101 110 107 123 195 139 119 156 101 153 173 132 206 145 134 141 143 137 126 123 118 142 144 144 145 141 138 185 188 155 146 151 156 160 163 166 181 191 184 179
232 227 210 201 235 214 222 250 221 290 211 211 127 10 261 155 105 121 66 22 100 166 134 138 210 197 135 123 106 96 116 126 118 130 125 119 123 140 149 156 172 189 149 149 151 156 162 167 169 180 198 195 195 194
239 207 208 177 224 232 243 227 214 182 157 84 141 209 170 128 171 153 168 161 125 62 307 53 243 149 125 121 122 116 92 98 97 95 86 59 45 72 113 101 110 134 137 151 153 144 152 162 170 180 187 201 214 202
216 204 202 221 217 236 223 279 336 1 138 168 107 74 101 63 346 80 57 129 134 146 160 146 68 90 83 87 92 110 130 132 131 123 115 120 101 29 29 114 116 109 118 109 70 133 159 153 163 175 184 187 203 182
232 185 215 249 214 227 261 236 204 309 19 97 118 112 80 62 23 259 129 91 140 126 136 128 133 128 132 132 121 77 21 143 148 141 144 156 169 144 127 120 115 108 109 110 110 101 86 97 89 81 98 106 114 123
197 195 219 217 90 211 262 73 99 104 72 55 43 76 108 140 74 18 30 17 117 111 102 100 91 124 126 130 135 126 94 6 112 109 105 118 129 129 127 121 120 114 112 111 109 111 114 95 112 121 131 150 161 141
195 192 142 107 120 192 49 38 43 54 24 43 47 25 55 61 61 21 348 13 86 100 106 136 126 109 98 100 94 88 116 122 126 126 125 129 129 129 125 122 121 119 117 117 122 123 125 117 106 103 112 116 129 151
310 19 63 85 68 71 23 92 73 66 32 37 21 27 35 61 68 311 315 30 63 99 130 108 90 96 102 105 113 103 89 95 107 106 111 120 127 128 126 127 128 126 125 121 121 121 118 117 110 107 98 94 97 97